Flag for U.S.A. Weather past 2 weeks in Avalon (Santa Catalina Island), California, U.S.A.

Now
88 °F

Clear.


Feels Like: 84 °F
Forecast: 79 / 86 °F
Wind: 5 mph from East

Location: Catalina Airport

Current Time: Sep 17, 2014 at 12:49:47 AM

Latest Report: Sep 16, 2014 at 11:51 PM


Visibility: 10 mi

Pressure: 29.69 "Hg

Humidity: 18%

Dew point: 39 °F

Location of Avalon (Santa Catalina Island)Location

Historic Weather in Avalon (Santa Catalina Island) — Graph

°F

Avalon (Santa Catalina Island) temperature yesterday

Maximum temperature yesterday: 94 °F (at 10:51 AM)
Minimum temperature yesterday: 82 °F (at 3:51 AM)
Average temperature yesterday: 88 °F

Past Weeks' High & Low Weather Summary

 TemperatureHumidityPressure
High96 °F (Sep 14, 11:51 AM)97% (Sep 2, 10:51 PM)29.93 "Hg (Sep 2, 10:51 PM)
Low58 °F (Sep 4, 10:00 PM)4% (Sep 10, 7:51 PM)29.68 "Hg (Sep 14, 5:51 PM)
Average76 °F44%29.79 "Hg
* Reported Sep 1 10:51 PM — Sep 16 10:51 PM, Avalon (Santa Catalina Island), Weather by CustomWeather, © 2014

Note: Actual official high and low records may vary slightly from our data, if they occured in-between our weather recording intervals... More about our weather records

Advertising

Avalon (Santa Catalina Island) weather history for previous 24 hours

 ConditionsComfort  
Time TempWeatherWind HumidityBarometerVisibility
10:51 PM
Sep 16
87 °FClear.7 mph20%29.70 "Hg10 mi
9:51 PM87 °FClear.6 mph20%29.70 "Hg10 mi
8:51 PM87 °FClear.7 mph22%29.70 "Hg10 mi
7:51 PM88 °FSunny.8 mph22%29.68 "Hg10 mi
6:51 PM89 °FSunny.8 mph23%29.68 "Hg10 mi
5:51 PM92 °FSunny.6 mph24%29.68 "Hg10 mi
4:51 PM91 °FSunny.6 mph26%29.68 "Hg10 mi
3:51 PM89 °FSunny.9 mph28%29.69 "Hg10 mi
2:51 PM90 °FSunny.9 mph31%29.69 "Hg10 mi
1:51 PM91 °FSunny.9 mph33%29.71 "Hg10 mi
12:51 PM92 °FSunny.5 mph37%29.73 "Hg10 mi
11:51 AM92 °FSunny.3 mph36%29.74 "Hg10 mi
10:51 AM94 °FSunny.5 mph25%29.74 "Hg10 mi
9:51 AM92 °FSunny.7 mph26%29.75 "Hg10 mi
8:51 AM89 °FSunny.5 mph28%29.74 "Hg10 mi
7:51 AM88 °FSunny.6 mph28%29.74 "Hg10 mi
6:51 AM86 °FClear.8 mph29%29.73 "Hg10 mi
5:51 AM84 °FClear.8 mph31%29.73 "Hg10 mi
4:51 AM88 °FClear.9 mph26%29.71 "Hg10 mi
3:51 AM82 °FClear.7 mph29%29.73 "Hg10 mi
2:51 AM86 °FClear.10 mph28%29.74 "Hg10 mi
1:51 AM85 °FClear.12 mph27%29.75 "Hg10 mi
12:51 AM84 °FClear.12 mph26%29.76 "Hg10 mi
Weather by CustomWeather, © 2014

See weather overviewHow to use our weather pages